Regional Weather Roundup
Issued by NWS Little Rock, AR

Home | Current Version | Previous Version | Graphics & Text | Print | Product List | Glossary On
Versions: 1 2 3 4 5 6 7 8 9 10 11 12 13 14 15 16 17 18 19 20 21 22 23 24 25 26 27 28 29 30 31 32 33 34 35 36 37 38 39 40 41 42 43 44 45 46 47 48 49 50
000
ASUS44 KLZK 251605
RWRLZK

WEATHER ROUNDUP FOR ARKANSAS
NATIONAL WEATHER SERVICE LITTLE ROCK AR
1100 AM CDT MON MAY 25 2015

NOTE: "FAIR" INDICATES FEW OR NO CLOUDS BELOW 12,000 FEET WITH NO
SIGNIFICANT WEATHER AND/OR OBSTRUCTIONS TO VISIBILITY.

ARZ001-003-010-029-251700-
NORTHWEST ARKANSAS

CITY           SKY/WX    TMP DP  RH WIND       PRES   REMARKS
FAYETTEVILLE   PTSUNNY   73  67  81 S12       29.97F
FORT SMITH     PTSUNNY   77  68  73 E9        29.95F
HARRISON       PTSUNNY   73  66  78 S13       30.01F
BENTONVILLE    PTSUNNY   75  63  64 S13G20    29.98S
ROGERS         CLOUDY    75  66  73 S16       29.98F
SILOAM SPGS    CLOUDY    75  63  64 S14G25    29.97S
HIGHFILL       PTSUNNY   75  66  73 S14       29.96
SPRINGDALE     CLOUDY    73  66  78 S14       29.99F
$$

ARZ004-005-016-251700-
NORTH CENTRAL ARKANSAS

CITY           SKY/WX    TMP DP  RH WIND       PRES   REMARKS
BATESVILLE     PTSUNNY   75  68  78 SE7       30.03S
FLIPPIN        CLOUDY    73  66  78 SE5       29.99F
MTN HOME       CLOUDY    74  66  76 S7        30.01F
$$

ARZ040-041-251700-
WEST CENTRAL ARKANSAS

CITY           SKY/WX    TMP DP  RH WIND       PRES   REMARKS
MENA           CLOUDY    75  70  83 S6        30.00F
MOUNT IDA      CLOUDY    73  66  78 VRB5      29.99S
$$

ARZ009-017-025-026-028-251700-
NORTHEAST ARKANSAS

CITY           SKY/WX    TMP DP  RH WIND       PRES   REMARKS
CORNING          N/A     75  72  88 S12       30.05S
JONESBORO      CLOUDY    75  69  81 S12       30.05S
NEWPORT        CLOUDY    76  69  79 S12       30.05S
WALNUT RIDGE   PTSUNNY   73  68  83 S14       30.04S
BLYTHEVILLE    CLOUDY    73  73 100 S12       30.08R
$$

ARZ022-023-033-042-044-251700-
CENTRAL ARKANSAS

CITY           SKY/WX    TMP DP  RH WIND       PRES   REMARKS
LITTLE ROCK    CLOUDY    76  65  68 S9        30.03S
N LITTLE ROCK  CLOUDY    75  69  81 S9        30.03S
JACKSONVILLE   CLOUDY    75  69  79 S6        30.02S
SEARCY         CLOUDY    75  69  81 S9        30.05S
HOT SPRINGS    CLOUDY    71  67  87 S5        30.02S
RUSSELLVILLE   CLOUDY    75  67  76 VRB3      30.00F
CLINTON        PTSUNNY   75  68  78 SE7       30.03F
$$

ARZ036-251700-
EAST ARKANSAS

CITY           SKY/WX    TMP DP  RH WIND       PRES   REMARKS
WEST MEMPHIS   CLOUDY    73  70  90 S10       30.07R
$$

ARZ050-053-066-070-073-251700-
SOUTHWEST ARKANSAS

CITY           SKY/WX    TMP DP  RH WIND       PRES   REMARKS
ARKADELPHIA    PTSUNNY   75  71  87 SE6       30.03R
CAMDEN         CLOUDY    77  66  69 NE9       30.03S
TEXARKANA      PTSUNNY   77  69  76 SE12      30.00S
EL DORADO      CLOUDY    76  69  79 SE9       30.04S
DE QUEEN       CLOUDY    75  68  78 S7        29.97S
$$

ARZ056-057-069-251700-
SOUTHEAST ARKANSAS

CITY           SKY/WX    TMP DP  RH WIND       PRES   REMARKS
PINE BLUFF     CLOUDY    76  69  79 S10       30.04S
STUTTGART      CLOUDY    75  66  73 MISG      30.04F
MONTICELLO     CLOUDY    76  69  79 VRB6      30.04F

$$





USA.gov is the U.S. government's official web portal to all federal, state and local government web resources and services.